DELTA 1 DEB, 7191

Orbit data source: Space-Track

DELTA 1 DEB, 7191 is space debris in SSO originally from a launch on Tue, 06 Nov 1973 UTC launched from the Air Force Western Test Range (AFWTR). Debris objects in space refer to the collection of defunct objects orbiting the Earth. Examples of debris include non-operational satellites, rocket bodies, and fragments generated from explosions, collisions, or faulty payload assembly.

Loading next visibility...
Identifier
7191, 1973-086EZ
Orbit
SSO
Country
Flag of USUS
Related business
Manufacturer
Unknown
Mission
Spacecraft
Bus & Motor
Unknown
Mass
Unknown
Launch date (UTC)
1973-11-06 (52 years ago)
Launch vehicle
Unknown
Launch site
Air Force Western Test Range (AFWTR)
Object type
Payload
Rocket body
Debris
Shape & HBR
Unknown shape, 0.2 m
Radar Cross Section
Small (<0.1 m²)

Expand to show TLE details & history
Last TLE update: 4 days ago

TLE from 4 days ago
0 DELTA 1 DEB
1  7191U 73086EZ  26030.97966892 -.00000709  00000-0 -63529-2 0  9994
2  7191 102.1461 283.8139 0249827 234.1512 134.4510 12.13345482879396
Epoch: 2026-01-30T23:30Z
TLE epoch observation values (Epoch: 2026-01-30T23:30:43.394Z)
Latitude
10.31637°
Longitude
158.68827°
Altitude
1,765.884 km
Speed
6.935 km/s
True Right ascension
18h 46m 19s
True Declination
10° 15' 48"
Sunlit
Object was in daylight at epoch
Visualization orbit readout
Latitude
Unknown
Longitude
Unknown
Altitude
Unknown
Speed
Unknown
Apparent Right ascension
Unknown
Apparent Declination
Unknown
Sunlit
N/A
Visualization observer readout
Local Sidereal Time
19:36:35
Azimuth
Unknown
Elevation
Unknown
Doppler factor
Unknown
Orbital elements
Apogee altitude
1,819.071 km
Perigee altitude
1,419.477 km
Semi-major axis
7,997.411 km
Eccentricity
0.02498
Inclination
102.1461°
RAAN
283.8139°
Arg. of periapsis
234.1512°
True anomaly
136.45044°
Mean anomaly
134.451°
Eccentric anomaly
135.45508°
Mean motion
3.03472 °/min
Orbital period
118.63 mins
BSTAR
-0.0063529
Loading maneuver chart data...
Computing Atmospheric mass density...

Documentation

Showing up to 5 results
|